Weather in Salmi

Russia / Republic of Karelia     61°22′06″N   31°51′57″E
temp.,
°C
wind,
m/s
gust,
m/s
humid.,
%
clouds,
%
prec.,
mm/h
press.,
hPa
HPBL,
m
4 march, thu
thu400:00−3nw8148467 0.1 998364
03:00−5nw7129033 0.1 1000352
06:00−4nw589094 0.0 1000302
09:00−5nnw579397 0.1 1001344
12:00−5nw569095 0.1 1002369
15:00−4nw588788 0.1 1002424
18:00−5nw688798 0.0 1002329
21:00−6nw599185 0.0 1003330
5 march, fri
fri500:00−7nnw589097 0.0 1003271
03:00−8nnw589499 0.1 1005294
06:00−8n4593100 0.4 1006235
09:00−10n339193 0.5 1008116
12:00−8nw34810 0.0 1010224
15:00−6nw468750 0.1 1012572
18:00−7nnw358152 0.1 1013288
21:00−8nnw478534 0.1 1015270
6 march, sat
sat600:00−10nnw45908 0.0 1016137
03:00−10nnw349010 0.0 1016129
06:00−9wnw249344 0.0 1015196
09:00−8wsw469062 0.0 1014240
12:00−6sw7118126 0.0 1010540
15:00−4ssw11158963 0.1 1005805
18:00−4ssw131894100 2.1 998996
21:00−2sw111795100 4.9 991670
7 march, sun
sun700:00−2wnw131792100 0.9 989744
03:00−8nw5964100 0.9 989512
06:00−7w6107665 0.0 989525
09:00−9w697772 0.1 989755
12:00−8wnw1271100 0.1 989549
15:00−7e227199 0.1 990551
18:00−8nne588152 0.1 993415
21:00−10n7128249 0.1 996409
8 march, mon
mon800:00−10n81384100 0.1 998768
03:00−13n81484100 0.1 1001658
06:00−13n81386100 0.0 1004681
09:00−15n81288100 0.0 1007593
12:00−14n7108594 0.0 1010614
15:00−12n7108388 0.0 1013664
18:00−12n6108686 0.0 1015440
21:00−15n6108959 0.0 1018348